Overview Statistics Trail Chart Weather Telemetry Raw packets
 

This is the latest recevied weather packets stored in our database for station/object KO4ZGL-13. If no packets are shown the sender has not sent any weather packets the latest 10 day(s).

<< 76 77 78 79 80 81 82 >>
Time Temp. Humidity Pressure Rain* Wind** Luminosity Snow
1788091311 23.89° C 99% 1021.6 hPa 0 mm - 40 W/m² -
1788090994 23.89° C 99% 1021.6 hPa 0 mm - 38 W/m² -
1788090689 23.89° C 99% 1021.5 hPa 0 mm - 49 W/m² -
1788090386 23.89° C 99% 1021.1 hPa 0 mm - 38 W/m² -
1788090085 23.33° C 99% 1021.4 hPa 0 mm - 34 W/m² -
1788089781 23.33° C 99% 1021.2 hPa 0 mm - 27 W/m² -
1788089476 23.33° C 99% 1021.2 hPa 0 mm - 26 W/m² -
1788089172 23.33° C 99% 1021.2 hPa 0 mm - 18 W/m² -
1788088868 23.33° C 99% 1021.1 hPa 0 mm - 16 W/m² -
1788088563 23.33° C 99% 1021.2 hPa 0 mm - 12 W/m² -
1788088259 23.33° C 99% 1021.2 hPa 0 mm - 9 W/m² -
1788087959 23.33° C 99% 1021.3 hPa 0 mm - 5 W/m² -
1788087654 23.33° C 99% 1021.1 hPa 0 mm - 2 W/m² -
1788087349 23.33° C 99% 1021 hPa 0 mm - 0 W/m² -
1788087045 23.33° C 99% 1021.2 hPa 0 mm - 0 W/m² -
1788086742 23.33° C 99% 1021 hPa 0 mm - 0 W/m² -
1788086438 23.33° C 99% 1020.9 hPa 0 mm - 0 W/m² -
1788086132 23.33° C 99% 1020.7 hPa 0 mm - 0 W/m² -
1788085831 23.33° C 99% 1020.8 hPa 0 mm - 0 W/m² -
1788085531 23.33° C 99% 1020.8 hPa 0 mm - 0 W/m² -
1788085227 23.89° C 99% 1021.1 hPa 0 mm - 0 W/m² -
1788084923 23.89° C 99% 1020.7 hPa 0 mm - 0 W/m² -
1788084622 23.89° C 99% 1020.9 hPa 0 mm - 0 W/m² -
1788084316 23.89° C 99% 1020.9 hPa 0 mm - 0 W/m² -
1788084015 23.89° C 99% 1021 hPa 0 mm - 0 W/m² -

* Rain latest hour (hover to see other rain measurements)
** Current wind speed in m/s (hover to see current wind gust speed)